| time (UTC) | temp F | wind direction | speed MPH | gust MPH | rain 1hr in | rain 24hr in | rain mn in | humidity % | barometer mb |
| 20260831125111 | 81 | 305 | 9.0 | 15.0 | 0.00 | 0.00 | 0.00 | 40 | 1017.2 |
| 20260831124111 | 80 | 311 | 11.0 | 14.0 | 0.00 | 0.00 | 0.00 | 42 | 1017.1 |
| 20260831123111 | 81 | 257 | 7.0 | 13.0 | 0.00 | 0.00 | 0.00 | 42 | 1017.4 |
| 20260831122111 | 82 | 313 | 11.0 | 19.0 | 0.00 | 0.00 | 0.00 | 41 | 1017.4 |
| 20260831121111 | 82 | 297 | 12.0 | 18.0 | 0.00 | 0.00 | 0.00 | 39 | 1017.3 |
| 20260831120111 | 83 | 333 | 6.0 | 15.0 | 0.00 | 0.00 | 0.00 | 39 | 1017.4 |
| 20260831115111 | 83 | 281 | 9.0 | 16.0 | 0.00 | 0.00 | 0.00 | 39 | 1017.4 |
| 20260831114111 | 83 | 263 | 11.0 | 18.0 | 0.00 | 0.00 | 0.00 | 38 | 1017.1 |
| 20260831113111 | 84 | 236 | 12.0 | 24.0 | 0.00 | 0.00 | 0.00 | 35 | 1017.1 |
| 20260831112111 | 82 | 281 | 9.0 | 15.0 | 0.00 | 0.00 | 0.00 | 40 | 1016.9 |
| 20260831111111 | 65 | 324 | 3.0 | 4.0 | 0.00 | 0.00 | 0.00 | 61 | 1016.7 |
| 20260831110111 | 82 | 254 | 13.0 | 17.0 | 0.00 | 0.00 | 0.00 | 43 | 1016.9 |
| 20260831105111 | 82 | 257 | 10.0 | 17.0 | 0.00 | 0.00 | 0.00 | 42 | 1016.9 |
| 20260831104111 | 83 | 265 | 13.0 | 24.0 | 0.00 | 0.00 | 0.00 | 40 | 1016.9 |
| 20260831103110 | 84 | 243 | 15.0 | 20.0 | 0.00 | 0.00 | 0.00 | 40 | 1016.8 |
| 20260831102111 | 84 | 225 | 11.0 | 21.0 | 0.00 | 0.00 | 0.00 | 40 | 1016.8 |
| 20260831101111 | 83 | 263 | 10.0 | 21.0 | 0.00 | 0.00 | 0.00 | 41 | 1016.9 |
| 20260831100110 | 82 | 257 | 12.0 | 17.0 | 0.00 | 0.00 | 0.00 | 41 | 1017.0 |
| 20260831095111 | 82 | 244 | 8.0 | 16.0 | 0.00 | 0.00 | 0.00 | 42 | 1017.1 |
| 20260831094110 | 80 | 289 | 9.0 | 15.0 | 0.00 | 0.00 | 0.00 | 43 | 1017.2 |
| 20260831093110 | 81 | 299 | 12.0 | 16.0 | 0.00 | 0.00 | 0.00 | 39 | 1017.3 |
| 20260831092110 | 81 | 281 | 10.0 | 18.0 | 0.00 | 0.00 | 0.00 | 40 | 1017.2 |
| 20260831091110 | 81 | 251 | 4.0 | 15.0 | 0.00 | 0.00 | 0.00 | 39 | 1017.2 |
| 20260831090110 | 80 | 235 | 11.0 | 16.0 | 0.00 | 0.00 | 0.00 | 41 | 1017.2 |
| 20260831085110 | 79 | 233 | 9.0 | 14.0 | 0.00 | 0.00 | 0.00 | 40 | 1017.2 |
| 20260831084110 | 78 | 254 | 9.0 | 15.0 | 0.00 | 0.00 | 0.00 | 42 | 1017.1 |
| 20260831083110 | 78 | 239 | 9.0 | 22.0 | 0.00 | 0.00 | 0.00 | 41 | 1017.0 |
| 20260831082110 | 79 | 242 | 8.0 | 10.0 | 0.00 | 0.00 | 0.00 | 42 | 1016.9 |
| 20260831081110 | 78 | 318 | 2.0 | 3.0 | 0.00 | 0.00 | 0.00 | 42 | 1016.0 |
| 20260831080110 | 78 | 250 | 2.0 | 4.0 | 0.00 | 0.00 | 0.00 | 43 | 1016.1 |
| 20260831075110 | 77 | 308 | 4.0 | 7.0 | 0.00 | 0.00 | 0.00 | 44 | 1016.4 |
| 20260831074110 | 76 | 294 | 1.0 | 8.0 | 0.00 | 0.00 | 0.00 | 47 | 1016.3 |
| 20260831073110 | 74 | 257 | 2.0 | 11.0 | 0.00 | 0.00 | 0.00 | 47 | 1016.2 |
| 20260831072110 | 74 | 218 | 8.0 | 11.0 | 0.00 | 0.00 | 0.00 | 48 | 1016.2 |
| 20260831071110 | 74 | 253 | 6.0 | 12.0 | 0.00 | 0.00 | 0.00 | 49 | 1016.2 |
| 20260831070110 | 73 | 254 | 7.0 | 12.0 | 0.00 | 0.00 | 0.00 | 49 | 1016.3 |
| 20260831065110 | 73 | 236 | 4.0 | 7.0 | 0.00 | 0.00 | 0.00 | 52 | 1016.4 |
| 20260831064110 | 71 | 252 | 3.0 | 5.0 | 0.00 | 0.00 | 0.00 | 55 | 1016.3 |
| 20260831063110 | 70 | 86 | 1.0 | 3.0 | 0.00 | 0.00 | 0.00 | 58 | 1015.9 |
| 20260831062110 | 69 | 52 | 1.0 | 3.0 | 0.00 | 0.00 | 0.00 | 60 | 1015.8 |
| 20260831061110 | 66 | 44 | 1.0 | 2.0 | 0.00 | 0.00 | 0.00 | 63 | 1016.0 |
| 20260831060110 | 65 | 5 | 0.0 | 0.0 | 0.00 | 0.00 | 0.00 | 65 | 1016.1 |
| 20260831055110 | 64 | 5 | 0.0 | 0.0 | 0.00 | 0.00 | 0.00 | 65 | 1015.9 |
| 20260831054110 | 63 | 5 | 0.0 | 0.0 | 0.00 | 0.00 | 0.00 | 65 | 1015.8 |
| 20260831053110 | 62 | 5 | 0.0 | 2.0 | 0.00 | 0.00 | 0.00 | 67 | 1015.7 |
| 20260831052110 | 61 | 311 | 0.0 | 0.0 | 0.00 | 0.00 | 0.00 | 70 | 1015.8 |
| 20260831051110 | 60 | 302 | 0.0 | 0.0 | 0.00 | 0.00 | 0.00 | 71 | 1015.8 |
| 20260831050110 | 60 | 302 | 0.0 | 0.0 | 0.00 | 0.00 | 0.00 | 71 | 1015.6 |
| 20260831045110 | 59 | 302 | 0.0 | 2.0 | 0.00 | 0.00 | 0.00 | 70 | 1015.7 |
| 20260831044110 | 59 | 302 | 1.0 | 2.0 | 0.00 | 0.00 | 0.00 | 70 | 1015.6 |
| 20260831043109 | 58 | 302 | 0.0 | 2.0 | 0.00 | 0.00 | 0.00 | 69 | 1015.7 |
| 20260831042109 | 58 | 301 | 3.0 | 6.0 | 0.00 | 0.00 | 0.00 | 69 | 1015.8 |
| 20260831041109 | 58 | 315 | 3.0 | 4.0 | 0.00 | 0.00 | 0.00 | 69 | 1015.6 |
| 20260831040110 | 58 | 315 | 1.0 | 2.0 | 0.00 | 0.00 | 0.00 | 68 | 1015.5 |
| 20260831035109 | 59 | 315 | 0.0 | 0.0 | 0.00 | 0.00 | 0.00 | 68 | 1015.4 |
| 20260831034109 | 59 | 315 | 0.0 | 0.0 | 0.00 | 0.00 | 0.00 | 68 | 1015.4 |
| 20260831033109 | 59 | 315 | 0.0 | 0.0 | 0.00 | 0.00 | 0.00 | 68 | 1015.4 |
| 20260831032109 | 59 | 315 | 0.0 | 2.0 | 0.00 | 0.00 | 0.00 | 68 | 1015.4 |
| 20260831031109 | 59 | 315 | 0.0 | 0.0 | 0.00 | 0.00 | 0.00 | 68 | 1015.4 |
| 20260831030109 | 60 | 315 | 0.0 | 0.0 | 0.00 | 0.00 | 0.00 | 67 | 1015.6 |
| 20260831025109 | 60 | 315 | 2.0 | 4.0 | 0.00 | 0.00 | 0.00 | 67 | 1015.6 |
| 20260831024109 | 60 | 315 | 4.0 | 4.0 | 0.00 | 0.00 | 0.00 | 67 | 1015.6 |
| 20260831023109 | 60 | 315 | 4.0 | 5.0 | 0.00 | 0.00 | 0.00 | 68 | 1015.6 |
| 20260831022109 | 60 | 313 | 3.0 | 3.0 | 0.00 | 0.00 | 0.00 | 68 | 1015.6 |
| 20260831021109 | 60 | 313 | 0.0 | 0.0 | 0.00 | 0.00 | 0.00 | 67 | 1015.6 |
| 20260831020109 | 60 | 313 | 0.0 | 0.0 | 0.00 | 0.00 | 0.00 | 67 | 1015.7 |
| 20260831015109 | 60 | 313 | 0.0 | 0.0 | 0.00 | 0.00 | 0.00 | 67 | 1015.7 |
| 20260831014109 | 61 | 313 | 0.0 | 0.0 | 0.00 | 0.00 | 0.00 | 67 | 1015.8 |
| 20260831013109 | 61 | 313 | 0.0 | 0.0 | 0.00 | 0.00 | 0.00 | 67 | 1015.8 |
| 20260831012109 | 61 | 323 | 0.0 | 0.0 | 0.00 | 0.00 | 0.00 | 67 | 1015.8 |
| 20260831011109 | 61 | 323 | 0.0 | 0.0 | 0.00 | 0.00 | 0.00 | 66 | 1015.8 |
| 20260831005113 | 61 | 323 | 0.0 | 0.0 | 0.00 | 0.00 | 0.00 | 66 | 1015.9 |
| 20260831004113 | 61 | 323 | 0.0 | 0.0 | 0.00 | 0.00 | 0.00 | 65 | 1016.0 |
| 20260831003113 | 62 | 323 | 0.0 | 0.0 | 0.00 | 0.00 | 0.00 | 65 | 1016.2 |
| 20260831002113 | 62 | 323 | 0.0 | 3.0 | 0.00 | 0.00 | 0.00 | 65 | 1016.3 |
| 20260831001113 | 62 | 323 | 2.0 | 4.0 | 0.00 | 0.00 | 0.00 | 65 | 1016.2 |
| 20260831000113 | 62 | 323 | 2.0 | 3.0 | 0.00 | 0.00 | 0.00 | 65 | 1016.2 |
| 20260830235113 | 63 | 323 | 0.0 | 0.0 | 0.00 | 0.00 | 0.00 | 64 | 1016.3 |
| 20260830234113 | 63 | 323 | 0.0 | 1.0 | 0.00 | 0.00 | 0.00 | 64 | 1016.5 |
| 20260830233113 | 63 | 323 | 0.0 | 2.0 | 0.00 | 0.00 | 0.00 | 63 | 1016.5 |
| 20260830232113 | 63 | 323 | 0.0 | 3.0 | 0.00 | 0.00 | 0.00 | 63 | 1016.5 |
| 20260830231113 | 64 | 323 | 2.0 | 3.0 | 0.00 | 0.00 | 0.00 | 62 | 1016.6 |
| 20260830230113 | 64 | 323 | 2.0 | 3.0 | 0.00 | 0.00 | 0.00 | 62 | 1016.5 |
| 20260830225112 | 64 | 325 | 2.0 | 4.0 | 0.00 | 0.00 | 0.00 | 62 | 1016.7 |
| 20260830224113 | 64 | 325 | 2.0 | 3.0 | 0.00 | 0.00 | 0.00 | 61 | 1016.6 |
| 20260830223113 | 65 | 325 | 0.0 | 3.0 | 0.00 | 0.00 | 0.00 | 61 | 1016.6 |
| 20260830222112 | 65 | 325 | 2.0 | 4.0 | 0.00 | 0.00 | 0.00 | 61 | 1016.6 |
| 20260830221112 | 65 | 325 | 2.0 | 3.0 | 0.00 | 0.00 | 0.00 | 61 | 1016.4 |
| 20260830220112 | 65 | 324 | 3.0 | 4.0 | 0.00 | 0.00 | 0.00 | 61 | 1016.5 |
| 20260830215112 | 65 | 324 | 3.0 | 4.0 | 0.00 | 0.00 | 0.00 | 61 | 1016.5 |
| 20260830214112 | 65 | 322 | 4.0 | 5.0 | 0.00 | 0.00 | 0.00 | 61 | 1016.5 |
| 20260830213112 | 66 | 310 | 0.0 | 0.0 | 0.00 | 0.00 | 0.00 | 61 | 1016.7 |
| 20260830212112 | 66 | 308 | 0.0 | 0.0 | 0.00 | 0.00 | 0.00 | 61 | 1016.7 |
| 20260830211112 | 66 | 285 | 0.0 | 0.0 | 0.00 | 0.00 | 0.00 | 61 | 1016.7 |
| 20260830210112 | 67 | 285 | 0.0 | 0.0 | 0.00 | 0.00 | 0.00 | 60 | 1016.6 |
| 20260830205112 | 67 | 285 | 0.0 | 0.0 | 0.00 | 0.00 | 0.00 | 60 | 1016.6 |
| 20260830204112 | 67 | 285 | 0.0 | 0.0 | 0.00 | 0.00 | 0.00 | 58 | 1016.4 |
| 20260830203112 | 67 | 285 | 0.0 | 0.0 | 0.00 | 0.00 | 0.00 | 57 | 1016.3 |
| 20260830202112 | 68 | 285 | 0.0 | 0.0 | 0.00 | 0.00 | 0.00 | 57 | 1016.5 |
| 20260830201112 | 68 | 285 | 0.0 | 0.0 | 0.00 | 0.00 | 0.00 | 57 | 1016.4 |
| 20260830200112 | 69 | 196 | 0.0 | 0.0 | 0.00 | 0.00 | 0.00 | 56 | 1016.4 |
| 20260830195112 | 69 | 196 | 0.0 | 0.0 | 0.00 | 0.00 | 0.00 | 54 | 1016.5 |
| 20260830194112 | 70 | 196 | 0.0 | 0.0 | 0.00 | 0.00 | 0.00 | 54 | 1016.6 |
| 20260830193112 | 70 | 196 | 0.0 | 0.0 | 0.00 | 0.00 | 0.00 | 53 | 1016.6 |
| 20260830192112 | 71 | 196 | 0.0 | 0.0 | 0.00 | 0.00 | 0.00 | 52 | 1016.5 |
| 20260830191112 | 71 | 196 | 0.0 | 0.0 | 0.00 | 0.00 | 0.00 | 50 | 1016.6 |
| 20260830190112 | 72 | 196 | 0.0 | 0.0 | 0.00 | 0.00 | 0.00 | 49 | 1016.4 |
| 20260830185112 | 74 | 196 | 0.0 | 0.0 | 0.00 | 0.00 | 0.00 | 47 | 1016.4 |
| 20260830184112 | 75 | 196 | 0.0 | 0.0 | 0.00 | 0.00 | 0.00 | 46 | 1016.4 |
| 20260830183112 | 75 | 196 | 0.0 | 0.0 | 0.00 | 0.00 | 0.00 | 44 | 1016.2 |
| 20260830182112 | 76 | 196 | 0.0 | 2.0 | 0.00 | 0.00 | 0.00 | 42 | 1016.0 |
| 20260830181112 | 77 | 194 | 3.0 | 7.0 | 0.00 | 0.00 | 0.00 | 41 | 1016.0 |
| 20260830180112 | 78 | 269 | 0.0 | 0.0 | 0.00 | 0.00 | 0.00 | 39 | 1015.8 |
| 20260830175112 | 79 | 270 | 0.0 | 3.0 | 0.00 | 0.00 | 0.00 | 37 | 1015.6 |
| 20260830174112 | 80 | 270 | 3.0 | 4.0 | 0.00 | 0.00 | 0.00 | 36 | 1015.5 |
| 20260830173112 | 82 | 263 | 3.0 | 4.0 | 0.00 | 0.00 | 0.00 | 35 | 1015.8 |
| 20260830172112 | 83 | 279 | 3.0 | 6.0 | 0.00 | 0.00 | 0.00 | 33 | 1015.6 |
| 20260830171112 | 84 | 273 | 4.0 | 7.0 | 0.00 | 0.00 | 0.00 | 32 | 1015.6 |
| 20260830170112 | 85 | 271 | 3.0 | 7.0 | 0.00 | 0.00 | 0.00 | 31 | 1015.5 |
| 20260830165112 | 85 | 263 | 4.0 | 6.0 | 0.00 | 0.00 | 0.00 | 29 | 1015.5 |
| 20260830164112 | 86 | 242 | 3.0 | 6.0 | 0.00 | 0.00 | 0.00 | 28 | 1015.5 |
| 20260830163112 | 87 | 231 | 8.0 | 10.0 | 0.00 | 0.00 | 0.00 | 28 | 1015.6 |
| 20260830162112 | 87 | 237 | 4.0 | 6.0 | 0.00 | 0.00 | 0.00 | 27 | 1015.5 |
| 20260830161112 | 87 | 211 | 3.0 | 8.0 | 0.00 | 0.00 | 0.00 | 27 | 1015.6 |
| 20260830160112 | 87 | 199 | 6.0 | 10.0 | 0.00 | 0.00 | 0.00 | 26 | 1015.8 |
| 20260830155111 | 87 | 223 | 10.0 | 12.0 | 0.00 | 0.00 | 0.00 | 27 | 1015.8 |
| 20260830154111 | 87 | 169 | 6.0 | 8.0 | 0.00 | 0.00 | 0.00 | 28 | 1015.8 |
| 20260830153111 | 87 | 302 | 7.0 | 10.0 | 0.00 | 0.00 | 0.00 | 28 | 1015.9 |
| 20260830152112 | 87 | 255 | 2.0 | 8.0 | 0.00 | 0.00 | 0.00 | 28 | 1015.9 |
| 20260830151111 | 88 | 288 | 4.0 | 10.0 | 0.00 | 0.00 | 0.00 | 27 | 1015.9 |
| 20260830150111 | 89 | 224 | 14.0 | 17.0 | 0.00 | 0.00 | 0.00 | 25 | 1016.0 |
| 20260830145111 | 89 | 263 | 6.0 | 13.0 | 0.00 | 0.00 | 0.00 | 27 | 1016.0 |
| 20260830144111 | 89 | 221 | 7.0 | 15.0 | 0.00 | 0.00 | 0.00 | 27 | 1015.9 |
| 20260830143111 | 89 | 259 | 12.0 | 17.0 | 0.00 | 0.00 | 0.00 | 26 | 1016.1 |
| 20260830142112 | 89 | 279 | 11.0 | 19.0 | 0.00 | 0.00 | 0.00 | 26 | 1016.2 |
| 20260830141111 | 90 | 275 | 13.0 | 19.0 | 0.00 | 0.00 | 0.00 | 25 | 1016.3 |
| 20260830140111 | 90 | 254 | 9.0 | 16.0 | 0.00 | 0.00 | 0.00 | 25 | 1016.2 |
| 20260830135111 | 90 | 227 | 7.0 | 15.0 | 0.00 | 0.00 | 0.00 | 24 | 1016.4 |
| 20260830134111 | 90 | 288 | 8.0 | 11.0 | 0.00 | 0.00 | 0.00 | 25 | 1016.4 |
| 20260830133111 | 90 | 226 | 13.0 | 19.0 | 0.00 | 0.00 | 0.00 | 25 | 1016.6 |
| 20260830132111 | 90 | 217 | 9.0 | 14.0 | 0.00 | 0.00 | 0.00 | 24 | 1016.7 |
| 20260830131111 | 90 | 237 | 8.0 | 14.0 | 0.00 | 0.00 | 0.00 | 24 | 1016.8 |
| 20260830130111 | 89 | 270 | 0.0 | 13.0 | 0.00 | 0.00 | 0.00 | 24 | 1016.9 |